| time (UTC) | temp C | wind direction | speed KPH | gust KPH | rain 1hr cm | rain 24hr cm | rain mn cm | humidity % | barometer mb |
| 20260505052227 | 18 | 147 | 0.0 | 0.0 | 0.00 | 0.00 | 0.00 | 57 | |
| 20260505051725 | 18 | 138 | 0.0 | 0.0 | 0.00 | 0.00 | 0.00 | 57 | |
| 20260505051223 | 18 | 165 | 0.0 | 0.0 | 0.00 | 0.00 | 0.00 | 58 | |
| 20260505050720 | 18 | 154 | 0.0 | 0.0 | 0.00 | 0.00 | 0.00 | 56 | |
| 20260505050218 | 18 | 169 | 0.0 | 3.2 | 0.00 | 0.00 | 0.00 | 58 | |
| 20260505041648 | 19 | 156 | 0.0 | 0.0 | 0.00 | 0.00 | 0.00 | 56 | |
| 20260505041146 | 20 | 156 | 0.0 | 0.0 | 0.00 | 0.00 | 0.00 | 56 | |
| 20260505040643 | 20 | 154 | 0.0 | 0.0 | 0.00 | 0.00 | 0.00 | 55 | |
| 20260505040140 | 20 | 156 | 0.0 | 0.0 | 0.00 | 0.00 | 0.00 | 54 | |
| 20260505035636 | 20 | 154 | 0.0 | 0.0 | 0.00 | 0.00 | 0.00 | 54 | |
| 20260505035132 | 20 | 146 | 0.0 | 0.0 | 0.00 | 0.00 | 0.00 | 53 | |
| 20260505034629 | 20 | 160 | 0.0 | 0.0 | 0.00 | 0.00 | 0.00 | 52 | |
| 20260505034126 | 20 | 154 | 0.0 | 0.0 | 0.00 | 0.00 | 0.00 | 53 | |
| 20260505033622 | 20 | 145 | 0.0 | 0.0 | 0.00 | 0.00 | 0.00 | 53 | |
| 20260505033121 | 20 | 165 | 0.0 | 0.0 | 0.00 | 0.00 | 0.00 | 53 | |
| 20260505032619 | 20 | 153 | 0.0 | 0.0 | 0.00 | 0.00 | 0.00 | 53 | |
| 20260505032115 | 20 | 150 | 0.0 | 0.0 | 0.00 | 0.00 | 0.00 | 52 | |
| 20260505031612 | 20 | 169 | 0.0 | 0.0 | 0.00 | 0.00 | 0.00 | 51 | |
| 20260505031108 | 21 | 154 | 0.0 | 0.0 | 0.00 | 0.00 | 0.00 | 52 | |
| 20260505030605 | 21 | 136 | 0.0 | 0.0 | 0.00 | 0.00 | 0.00 | 51 | |
| 20260505025557 | 21 | 163 | 0.0 | 0.0 | 0.00 | 0.00 | 0.00 | 50 | |
| 20260505025056 | 21 | 123 | 0.0 | 3.2 | 0.00 | 0.00 | 0.00 | 51 | |
| 20260505024553 | 21 | 178 | 0.0 | 0.0 | 0.00 | 0.00 | 0.00 | 50 | |
| 20260505024050 | 21 | 108 | 1.6 | 3.2 | 0.00 | 0.00 | 0.00 | 51 | |
| 20260505023547 | 21 | 127 | 0.0 | 0.0 | 0.00 | 0.00 | 0.00 | 50 | |
| 20260505023045 | 21 | 164 | 0.0 | 0.0 | 0.00 | 0.00 | 0.00 | 50 | |
| 20260505022542 | 21 | 126 | 0.0 | 3.2 | 0.00 | 0.00 | 0.00 | 50 | |
| 20260505022039 | 21 | 136 | 1.6 | 3.2 | 0.00 | 0.00 | 0.00 | 50 | |
| 20260505021536 | 21 | 150 | 0.0 | 0.0 | 0.00 | 0.00 | 0.00 | 50 | |
| 20260505021033 | 21 | 165 | 0.0 | 0.0 | 0.00 | 0.00 | 0.00 | 49 | |
| 20260505020532 | 21 | 123 | 1.6 | 3.2 | 0.00 | 0.00 | 0.00 | 49 | |
| 20260505020030 | 21 | 133 | 1.6 | 3.2 | 0.00 | 0.00 | 0.00 | 49 | |
| 20260505015527 | 22 | 153 | 0.0 | 0.0 | 0.00 | 0.00 | 0.00 | 49 | |
| 20260505015024 | 22 | 131 | 0.0 | 3.2 | 0.00 | 0.00 | 0.00 | 49 | |
| 20260505014520 | 22 | 150 | 0.0 | 0.0 | 0.00 | 0.00 | 0.00 | 49 | |
| 20260505014018 | 22 | 126 | 1.6 | 3.2 | 0.00 | 0.00 | 0.00 | 48 | |
| 20260505013515 | 22 | 148 | 0.0 | 0.0 | 0.00 | 0.00 | 0.00 | 48 | |
| 20260505013012 | 22 | 163 | 0.0 | 0.0 | 0.00 | 0.00 | 0.00 | 48 | |
| 20260505012510 | 22 | 168 | 0.0 | 0.0 | 0.00 | 0.00 | 0.00 | 48 | |
| 20260505012007 | 22 | 155 | 0.0 | 0.0 | 0.00 | 0.00 | 0.00 | 48 | |
| 20260505011502 | 22 | 130 | 0.0 | 0.0 | 0.00 | 0.00 | 0.00 | 47 | |
| 20260505011000 | 22 | 147 | 0.0 | 0.0 | 0.00 | 0.00 | 0.00 | 47 | |
| 20260505010455 | 23 | 168 | 0.0 | 0.0 | 0.00 | 0.00 | 0.00 | 47 | |
| 20260505005951 | 23 | 127 | 1.6 | 3.2 | 0.00 | 0.00 | 0.00 | 46 | |
| 20260505005448 | 23 | 187 | 0.0 | 0.0 | 0.00 | 0.00 | 0.00 | 47 | |
| 20260505004946 | 23 | 235 | 0.0 | 3.2 | 0.00 | 0.00 | 0.00 | 46 | |
| 20260505004442 | 23 | 148 | 0.0 | 0.0 | 0.00 | 0.00 | 0.00 | 46 | |
| 20260505003939 | 23 | 148 | 3.2 | 3.2 | 0.00 | 0.00 | 0.00 | 46 | |
| 20260505003436 | 23 | 119 | 1.6 | 3.2 | 0.00 | 0.00 | 0.00 | 46 | |
| 20260505002933 | 23 | 127 | 0.0 | 3.2 | 0.00 | 0.00 | 0.00 | 45 | |
| 20260505002429 | 23 | 195 | 0.0 | 0.0 | 0.00 | 0.00 | 0.00 | 45 | |
| 20260505001927 | 24 | 130 | 0.0 | 0.0 | 0.00 | 0.00 | 0.00 | 45 | |
| 20260505001425 | 24 | 149 | 0.0 | 0.0 | 0.00 | 0.00 | 0.00 | 44 | |
| 20260505000921 | 24 | 172 | 1.6 | 3.2 | 0.00 | 0.00 | 0.00 | 43 | |
| 20260505000420 | 24 | 163 | 0.0 | 3.2 | 0.00 | 0.00 | 0.00 | 43 | |
| 20260504235916 | 25 | 152 | 1.6 | 3.2 | 0.00 | 0.00 | 0.00 | 43 | |
| 20260504235413 | 25 | 127 | 1.6 | 3.2 | 0.00 | 0.00 | 0.00 | 43 | |
| 20260504234909 | 25 | 224 | 1.6 | 3.2 | 0.00 | 0.00 | 0.00 | 42 | |
| 20260504234407 | 25 | 157 | 4.8 | 8.0 | 0.00 | 0.00 | 0.00 | 42 | |
| 20260504233903 | 25 | 243 | 3.2 | 3.2 | 0.00 | 0.00 | 0.00 | 42 | |
| 20260504233359 | 25 | 166 | 3.2 | 3.2 | 0.00 | 0.00 | 0.00 | 41 | |
| 20260504232856 | 25 | 132 | 0.0 | 3.2 | 0.00 | 0.00 | 0.00 | 41 | |
| 20260504232353 | 25 | 97 | 4.8 | 8.0 | 0.00 | 0.00 | 0.00 | 40 | |
| 20260504231850 | 25 | 64 | 1.6 | 3.2 | 0.00 | 0.00 | 0.00 | 40 | |
| 20260504231346 | 26 | 97 | 0.0 | 0.0 | 0.00 | 0.00 | 0.00 | 41 | |
| 20260504230843 | 26 | 234 | 3.2 | 8.0 | 0.00 | 0.00 | 0.00 | 40 | |
| 20260504230341 | 26 | 129 | 4.8 | 8.0 | 0.00 | 0.00 | 0.00 | 40 | |
| 20260504225839 | 26 | 139 | 4.8 | 8.0 | 0.00 | 0.00 | 0.00 | 40 | |
| 20260504225335 | 26 | 117 | 4.8 | 8.0 | 0.00 | 0.00 | 0.00 | 38 | |
| 20260504224833 | 27 | 105 | 6.4 | 12.9 | 0.00 | 0.00 | 0.00 | 38 | |
| 20260504224329 | 27 | 166 | 4.8 | 8.0 | 0.00 | 0.00 | 0.00 | 38 | |
| 20260504223826 | 27 | 182 | 9.7 | 12.9 | 0.00 | 0.00 | 0.00 | 37 | |
| 20260504223322 | 27 | 158 | 3.2 | 3.2 | 0.00 | 0.00 | 0.00 | 36 | |
| 20260504222818 | 27 | 139 | 1.6 | 3.2 | 0.00 | 0.00 | 0.00 | 36 | |
| 20260504222315 | 27 | 121 | 1.6 | 3.2 | 0.00 | 0.00 | 0.00 | 35 | |
| 20260504221814 | 28 | 271 | 3.2 | 3.2 | 0.00 | 0.00 | 0.00 | 35 | |
| 20260504221310 | 28 | 339 | 1.6 | 3.2 | 0.00 | 0.00 | 0.00 | 35 | |
| 20260504220807 | 28 | 87 | 3.2 | 3.2 | 0.00 | 0.00 | 0.00 | 35 | |
| 20260504220304 | 28 | 175 | 3.2 | 3.2 | 0.00 | 0.00 | 0.00 | 35 | |
| 20260504215801 | 28 | 144 | 0.0 | 3.2 | 0.00 | 0.00 | 0.00 | 35 | |
| 20260504215257 | 28 | 139 | 4.8 | 8.0 | 0.00 | 0.00 | 0.00 | 34 | |
| 20260504214753 | 28 | 149 | 4.8 | 8.0 | 0.00 | 0.00 | 0.00 | 35 | |
| 20260504214250 | 28 | 91 | 4.8 | 8.0 | 0.00 | 0.00 | 0.00 | 34 | |
| 20260504213747 | 28 | 104 | 3.2 | 8.0 | 0.00 | 0.00 | 0.00 | 35 | |
| 20260504213243 | 28 | 241 | 4.8 | 8.0 | 0.00 | 0.00 | 0.00 | 34 | |
| 20260504212740 | 28 | 88 | 3.2 | 3.2 | 0.00 | 0.00 | 0.00 | 35 | |
| 20260504212237 | 28 | 194 | 4.8 | 8.0 | 0.00 | 0.00 | 0.00 | 35 | |
| 20260504211735 | 28 | 138 | 9.7 | 12.9 | 0.00 | 0.00 | 0.00 | 34 | |
| 20260504211230 | 28 | 171 | 3.2 | 8.0 | 0.00 | 0.00 | 0.00 | 36 | |
| 20260504210728 | 28 | 50 | 8.0 | 12.9 | 0.00 | 0.00 | 0.00 | 34 | |
| 20260504210225 | 28 | 155 | 4.8 | 8.0 | 0.00 | 0.00 | 0.00 | 34 | |
| 20260504205722 | 28 | 230 | 8.0 | 12.9 | 0.00 | 0.00 | 0.00 | 34 | |
| 20260504205220 | 28 | 168 | 3.2 | 3.2 | 0.00 | 0.00 | 0.00 | 35 | |
| 20260504204718 | 28 | 168 | 6.4 | 8.0 | 0.00 | 0.00 | 0.00 | 34 | |
| 20260504204216 | 28 | 294 | 3.2 | 3.2 | 0.00 | 0.00 | 0.00 | 34 | |
| 20260504203715 | 28 | 202 | 3.2 | 3.2 | 0.00 | 0.00 | 0.00 | 34 | |
| 20260504203212 | 27 | 196 | 4.8 | 8.0 | 0.00 | 0.00 | 0.00 | 34 | |
| 20260504202712 | 28 | 225 | 4.8 | 8.0 | 0.00 | 0.00 | 0.00 | 34 | |
| 20260504202209 | 28 | 215 | 3.2 | 3.2 | 0.00 | 0.00 | 0.00 | 33 | |
| 20260504201706 | 28 | 92 | 4.8 | 8.0 | 0.00 | 0.00 | 0.00 | 35 | |
| 20260504201204 | 28 | 65 | 3.2 | 3.2 | 0.00 | 0.00 | 0.00 | 35 | |
| 20260504200701 | 28 | 351 | 4.8 | 8.0 | 0.00 | 0.00 | 0.00 | 34 | |
| 20260504200157 | 28 | 74 | 4.8 | 8.0 | 0.00 | 0.00 | 0.00 | 33 | |
| 20260504195653 | 27 | 338 | 4.8 | 8.0 | 0.00 | 0.00 | 0.00 | 33 | |
| 20260504195149 | 27 | 99 | 3.2 | 3.2 | 0.00 | 0.00 | 0.00 | 33 | |
| 20260504194646 | 27 | 175 | 1.6 | 3.2 | 0.00 | 0.00 | 0.00 | 34 | |
| 20260504194142 | 27 | 85 | 12.9 | 20.9 | 0.00 | 0.00 | 0.00 | 35 | |
| 20260504193639 | 27 | 176 | 6.4 | 8.0 | 0.00 | 0.00 | 0.00 | 35 | |
| 20260504193137 | 27 | 47 | 1.6 | 3.2 | 0.00 | 0.00 | 0.00 | 36 | |
| 20260504192635 | 27 | 62 | 4.8 | 8.0 | 0.00 | 0.00 | 0.00 | 34 | |
| 20260504192133 | 27 | 213 | 9.7 | 12.9 | 0.00 | 0.00 | 0.00 | 34 | |
| 20260504191631 | 27 | 236 | 8.0 | 12.9 | 0.00 | 0.00 | 0.00 | 33 | |
| 20260504191127 | 27 | 338 | 4.8 | 8.0 | 0.00 | 0.00 | 0.00 | 34 | |
| 20260504190623 | 27 | 158 | 4.8 | 8.0 | 0.00 | 0.00 | 0.00 | 36 | |
| 20260504190120 | 27 | 259 | 4.8 | 8.0 | 0.00 | 0.00 | 0.00 | 33 | |
| 20260504185616 | 27 | 176 | 11.3 | 16.1 | 0.00 | 0.00 | 0.00 | 33 | |
| 20260504185113 | 27 | 90 | 3.2 | 8.0 | 0.00 | 0.00 | 0.00 | 34 | |
| 20260504184608 | 27 | 16 | 6.4 | 8.0 | 0.00 | 0.00 | 0.00 | 34 | |
| 20260504184104 | 27 | 185 | 3.2 | 3.2 | 0.00 | 0.00 | 0.00 | 35 | |
| 20260504183601 | 27 | 143 | 0.0 | 0.0 | 0.00 | 0.00 | 0.00 | 35 | |
| 20260504183059 | 27 | 161 | 1.6 | 3.2 | 0.00 | 0.00 | 0.00 | 35 | |
| 20260504182556 | 27 | 174 | 6.4 | 12.9 | 0.00 | 0.00 | 0.00 | 35 | |
| 20260504182053 | 27 | 97 | 6.4 | 12.9 | 0.00 | 0.00 | 0.00 | 35 | |
| 20260504181550 | 27 | 93 | 8.0 | 12.9 | 0.00 | 0.00 | 0.00 | 36 | |
| 20260504181048 | 27 | 213 | 6.4 | 8.0 | 0.00 | 0.00 | 0.00 | 35 | |
| 20260504180547 | 27 | 115 | 9.7 | 16.1 | 0.00 | 0.00 | 0.00 | 34 | |
| 20260504180046 | 27 | 90 | 3.2 | 3.2 | 0.00 | 0.00 | 0.00 | 35 | |
| 20260504175542 | 27 | 287 | 8.0 | 12.9 | 0.00 | 0.00 | 0.00 | 35 | |
| 20260504175039 | 27 | 184 | 0.0 | 3.2 | 0.00 | 0.00 | 0.00 | 36 | |
| 20260504174537 | 27 | 218 | 3.2 | 3.2 | 0.00 | 0.00 | 0.00 | 34 | |
| 20260504174033 | 27 | 201 | 4.8 | 8.0 | 0.00 | 0.00 | 0.00 | 35 | |
| 20260504173531 | 26 | 158 | 4.8 | 8.0 | 0.00 | 0.00 | 0.00 | 37 | |
| 20260504173028 | 26 | 97 | 4.8 | 8.0 | 0.00 | 0.00 | 0.00 | 34 | |
| 20260504172524 | 26 | 144 | 6.4 | 8.0 | 0.00 | 0.00 | 0.00 | 34 | |
| 20260504172021 | 26 | 173 | 1.6 | 3.2 | 0.00 | 0.00 | 0.00 | 34 | |
| 20260504171518 | 26 | 311 | 4.8 | 8.0 | 0.00 | 0.00 | 0.00 | 36 | |
| 20260504171015 | 26 | 210 | 4.8 | 8.0 | 0.00 | 0.00 | 0.00 | 35 | |
| 20260504170510 | 26 | 119 | 3.2 | 8.0 | 0.00 | 0.00 | 0.00 | 35 | |
| 20260504160431 | 25 | 164 | 6.4 | 8.0 | 0.00 | 0.00 | 0.00 | 36 | |
| 20260504150854 | 22 | 196 | 1.6 | 3.2 | 0.00 | 0.00 | 0.00 | 40 | |
| 20260504150351 | 22 | 205 | 4.8 | 8.0 | 0.00 | 0.00 | 0.00 | 42 | |
| 20260504141321 | 20 | 237 | 3.2 | 3.2 | 0.00 | 0.00 | 0.00 | 49 | |
| 20260504140817 | 20 | 207 | 4.8 | 8.0 | 0.00 | 0.00 | 0.00 | 49 | |
| 20260504140313 | 19 | 213 | 4.8 | 8.0 | 0.00 | 0.00 | 0.00 | 53 | |
| 20260504130742 | 16 | 170 | 0.0 | 3.2 | 0.00 | 0.00 | 0.00 | 63 | |
| 20260504130238 | 16 | 134 | 0.0 | 0.0 | 0.00 | 0.00 | 0.00 | 63 | |
| 20260504120202 | 11 | 150 | 0.0 | 0.0 | 0.00 | 0.00 | 0.00 | 88 | |
| 20260504110629 | 11 | 150 | 0.0 | 0.0 | 0.00 | 0.00 | 0.00 | 89 | |
| 20260504110125 | 11 | 153 | 0.0 | 0.0 | 0.00 | 0.00 | 0.00 | 88 | |
| 20260504100551 | 12 | 153 | 0.0 | 0.0 | 0.00 | 0.00 | 0.00 | 84 | |
| 20260504081944 | 13 | 151 | 0.0 | 0.0 | 0.00 | 0.00 | 0.00 | 74 | |
| 20260504081442 | 13 | 152 | 0.0 | 0.0 | 0.00 | 0.00 | 0.00 | 73 | |
| 20260504080937 | 13 | 155 | 0.0 | 0.0 | 0.00 | 0.00 | 0.00 | 72 | |
| 20260504080434 | 13 | 155 | 0.0 | 0.0 | 0.00 | 0.00 | 0.00 | 72 | |
| 20260504070402 | 15 | 156 | 0.0 | 0.0 | 0.00 | 0.00 | 0.00 | 64 |